Snowfall_Accumulation
nan nan nan nan nan nan nan 0.0 0.0 0.0 0.0 0.0 0.0 0.0 0.0 nan 0.0 0.0 0.0 0.0 0.0 0.0 0.0 0.0 0.1 0.1 0.0 0.0 0.0 0.1 0.1 3.5 5.7 6.4 5.1 3.5 7.1 10.8 9.2 16.0 15.3 11.8 9.4 10.5
nan nan nan nan nan nan 0.0 0.0 0.0 0.0 0.0 0.1 0.0 0.0 0.0 0.0 0.0 0.0 0.0 0.0 0.0 0.0 0.1 0.3 0.0 0.0 0.0 0.0 0.0 0.7 0.0 1.5 5.0 7.1 5.1 0.5 4.4 6.6 7.2 7.9 11.8 21.1 15.2 13.1
nan nan nan nan nan nan 0.0 0.0 0.0 0.0 0.0 0.0 0.1 0.1 0.0 0.0 0.0 0.0 0.0 0.0 0.0 0.0 0.0 0.0 0.4 0.0 0.0 0.0 0.0 nan nan 0.2 0.6 3.5 4.4 1.5 4.2 2.6 3.9 8.8 11.7 16.1 15.2 9.6
nan nan nan nan nan nan 0.0 0.0 0.1 0.1 0.1 0.0 0.0 0.2 0.1 0.0 0.0 0.0 0.0 0.0 0.0 0.5 1.5 0.0 0.0 0.0 0.0 0.0 nan 0.0 0.0 4.3 0.2 1.5 0.4 0.1 0.8 1.7 2.6 10.0 11.5 10.0 11.5 6.3
nan nan nan nan nan nan 0.0 0.0 0.1 0.1 0.0 0.0 0.0 0.2 0.1 0.1 0.0 0.1 0.2 0.2 0.0 0.0 1.6 1.5 4.0 1.1 0.0 0.1 0.0 0.0 0.1 3.1 0.4 0.9 0.0 0.0 0.2 0.2 0.3 1.3 6.5 6.6 4.4 5.3
nan nan nan nan nan nan 0.0 0.0 0.0 0.2 nan 0.1 0.7 0.5 0.0 0.0 0.0 0.0 0.0 0.1 0.3 0.1 0.1 0.1 0.0 0.0 0.1 0.2 0.1 0.0 0.7 1.5 0.9 1.8 0.0 0.0 1.5 1.4 0.5 2.8 2.8 3.6 4.9 6.7
nan nan nan nan nan nan 0.0 0.0 0.1 1.7 0.9 0.3 0.2 0.0 0.0 0.0 0.0 0.6 0.0 0.0 0.1 0.1 0.0 0.0 0.0 0.0 0.0 0.1 0.0 0.0 0.4 1.4 2.4 3.8 0.6 7.2 0.8 0.0 0.3 0.6 0.9 0.9 1.2 1.6
nan nan nan nan nan nan 0.0 0.0 0.2 1.7 5.7 0.1 0.1 0.0 0.0 0.0 0.0 0.0 0.0 0.0 0.0 0.0 0.1 1.9 1.9 0.2 0.1 0.2 0.0 0.1 0.3 3.5 11.9 10.9 2.6 0.5 0.1 0.2 0.9 1.6 1.2 0.1 0.4 0.1
nan nan nan nan nan nan 0.0 0.0 0.0 0.6 8.7 0.3 0.1 0.2 0.0 1.0 0.5 0.0 0.2 0.0 0.0 0.0 0.6 2.1 4.2 2.5 1.4 0.5 0.0 0.0 0.1 1.7 3.4 4.0 7.3 2.7 1.8 0.0 0.0 0.1 1.7 0.0 0.2 0.5
nan nan nan nan nan nan 0.0 0.0 0.0 0.9 10.3 0.3 0.0 1.2 2.2 1.0 2.6 5.2 0.2 0.1 0.1 0.0 1.7 3.8 4.6 2.2 0.3 3.6 1.3 1.0 0.4 2.2 6.7 2.4 6.7 2.0 0.2 0.0 0.0 2.3 2.7 0.2 0.2 0.4
nan nan nan nan nan nan 0.0 0.0 0.0 0.7 5.4 0.8 0.1 0.2 4.4 1.9 2.1 6.8 0.1 2.4 2.5 2.1 4.9 4.8 3.0 3.1 2.3 2.2 1.6 5.1 6.6 10.9 4.4 3.9 4.2 7.5 0.1 0.7 5.9 2.7 0.6 0.1 0.3 0.3
nan nan nan nan nan nan nan 0.0 0.0 0.0 1.8 0.9 0.0 0.0 0.0 0.3 0.6 6.3 1.9 1.0 0.7 2.7 5.0 5.9 4.9 3.5 2.2 3.3 3.5 3.1 10.7 7.6 11.0 5.7 1.7 1.1 0.7 5.6 3.5 4.6 5.9 2.9 2.7 0.4
nan nan nan nan nan nan nan 0.0 0.0 0.0 1.2 0.7 0.4 0.1 0.0 0.0 0.0 0.0 12.3 0.6 2.1 2.6 1.7 7.6 7.8 7.8 1.1 3.5 5.9 2.8 1.0 1.6 6.0 6.7 2.8 3.3 3.7 5.0 2.6 4.0 6.4 5.1 3.4 2.7
nan nan nan nan nan nan nan 0.0 0.0 0.0 0.3 5.6 1.2 0.0 0.0 0.0 0.0 0.0 0.0 1.2 0.8 3.1 3.5 11.0 6.8 4.8 1.6 3.8 4.6 3.4 3.5 3.1 3.8 3.9 3.7 2.9 1.2 3.6 6.0 6.2 3.9 5.6 4.7 5.8
nan nan nan nan nan nan nan 0.0 0.0 0.0 1.4 2.2 0.8 0.0 0.0 0.0 0.0 0.0 0.0 0.3 4.0 7.7 12.9 13.0 12.1 3.7 5.5 5.0 3.3 5.9 11.8 16.4 16.5 10.8 8.8 13.1 9.7 8.9 7.5 7.7 10.6 11.7 9.1 5.2
nan nan nan nan nan nan 0.0 0.1 0.0 0.0 0.1 5.0 2.7 0.0 0.0 0.0 0.0 0.1 0.3 1.2 4.7 6.6 8.8 9.6 7.2 3.3 4.5 9.7 8.3 5.3 8.9 9.8 15.6 22.1 13.0 16.0 13.0 9.5 10.2 12.7 13.6 11.6 12.1 12.1
nan nan nan nan nan 0.0 0.0 0.1 0.0 nan 0.1 2.8 5.4 0.5 0.0 0.0 0.1 0.4 1.1 1.2 3.2 5.2 6.4 7.1 4.1 4.4 3.8 7.2 15.2 12.0 12.3 14.5 14.5 11.6 9.4 10.6 14.1 23.6 16.3 15.5 17.2 12.1 10.8 10.9
nan nan nan nan nan nan 0.0 0.1 nan nan 0.6 0.9 12.4 2.9 0.1 0.1 2.7 4.3 1.0 4.6 2.7 3.1 4.3 4.5 4.4 2.6 4.8 16.3 10.9 11.1 10.2 7.0 9.3 13.3 12.4 17.1 8.4 9.0 11.7 8.9 7.9 5.8 7.5 6.2
nan nan nan 0.0 0.0 0.0 0.1 nan nan 0.8 0.3 8.2 5.8 5.3 4.4 0.1 0.9 3.5 3.9 2.3 8.8 3.8 5.6 4.7 3.2 5.3 19.8 18.5 14.0 10.9 11.5 16.0 16.4 7.9 7.5 5.2 7.9 5.5 4.7 3.2 2.6 3.1 4.4 2.1
nan 0.0 0.0 0.6 0.0 nan nan 0.5 0.5 1.2 3.6 2.9 3.8 0.6 4.7 1.5 0.9 1.9 3.4 3.7 5.2 14.2 6.2 1.2 7.7 15.1 5.0 10.7 11.5 10.2 8.9 7.3 4.7 3.3 4.3 2.0 1.9 1.0 0.6 0.5 0.2 0.6 0.4 0.4
0.0 0.6 0.5 0.2 nan 0.1 0.8 4.7 6.8 4.5 11.7 3.7 3.1 1.4 3.8 0.4 9.0 5.6 3.9 10.1 6.0 11.2 4.3 4.8 5.7 6.5 11.3 7.9 7.4 5.1 4.1 3.2 3.3 1.9 1.0 0.4 0.6 0.4 0.2 0.1 0.1 0.2 0.3 0.3
0.1 0.5 0.3 0.3 1.4 3.0 5.7 6.0 5.5 5.0 7.7 2.9 2.6 1.8 1.7 3.7 3.9 10.2 9.6 8.2 8.8 12.9 1.8 7.8 8.2 9.4 6.9 6.9 4.7 2.9 1.9 2.0 1.0 0.2 0.1 0.1 0.0 0.0 0.1 0.2 0.2 0.3 0.3 0.5
0.6 1.4 2.7 2.9 5.2 34.5 11.0 9.2 7.8 9.9 6.1 4.1 3.3 5.6 1.2 2.7 4.9 9.6 9.7 20.5 16.7 3.8 17.5 9.2 10.4 9.1 5.5 4.2 2.3 0.6 0.3 0.3 0.1 0.1 0.0 0.0 0.1 0.1 0.4 0.7 0.2 0.7 0.8 0.7
4.8 10.7 38.5 9.0 10.0 3.4 4.3 3.7 4.3 1.7 3.3 2.5 3.5 3.8 5.1 3.1 6.8 5.3 15.7 7.9 5.7 17.1 13.3 13.0 12.3 8.6 3.1 0.9 1.0 1.5 0.8 0.1 0.3 0.2 0.4 0.4 0.6 0.5 0.4 0.9 1.4 1.4 1.1 1.0
10.8 8.6 27.1 8.6 1.1 2.2 2.5 3.8 3.6 2.0 2.6 4.8 3.7 2.7 2.5 4.2 8.2 3.9 8.5 13.7 14.0 6.9 12.6 10.8 8.1 3.3 3.4 1.6 1.0 1.4 1.2 0.6 0.4 0.6 0.6 0.7 0.8 1.0 1.3 1.1 1.2 1.2 0.9 0.7
11.2 9.8 7.5 0.4 3.9 5.4 3.9 3.8 3.0 1.0 2.0 2.3 3.6 7.6 11.1 7.1 6.0 11.5 11.0 14.1 12.1 11.5 10.2 4.6 2.0 2.0 2.1 1.8 1.5 0.8 1.1 2.1 2.0 1.3 1.1 1.2 1.7 2.1 1.8 1.1 0.8 0.8 0.8 0.8
16.3 14.3 0.2 1.3 3.0 2.6 1.0 0.2 0.3 0.2 3.2 7.6 10.0 17.6 9.5 9.4 14.0 11.2 5.8 15.4 9.7 5.3 2.9 1.4 2.4 3.5 3.2 2.0 1.0 0.8 0.9 0.8 0.9 1.0 1.2 1.8 1.5 1.7 1.4 1.5 0.9 0.7 0.5 0.6
Water_Equivalent
nan nan nan nan nan nan nan 0.00 0.01 0.00 0.00 0.01 0.00 0.01 0.00 nan 0.00 0.00 0.00 0.00 0.00 0.00 0.00 0.00 0.01 0.02 0.01 0.00 0.00 0.01 0.01 0.36 0.61 0.55 0.55 0.40 0.71 0.90 0.76 1.32 1.20 0.83 0.70 0.85
nan nan nan nan nan nan 0.00 0.00 0.00 0.00 0.00 0.03 0.00 0.00 0.00 0.00 0.00 0.00 0.00 0.00 0.00 0.00 0.01 0.03 0.00 0.00 0.00 0.00 0.00 0.09 0.00 0.19 0.44 0.57 0.52 0.07 0.37 0.60 0.60 0.66 0.98 1.35 1.33 1.06
nan nan nan nan nan nan 0.00 0.00 0.02 0.00 0.00 0.00 0.02 0.02 0.00 0.00 0.00 0.00 0.00 0.00 0.00 0.01 0.00 0.00 0.05 0.00 0.00 0.00 0.00 nan nan 0.02 0.05 0.35 0.30 0.14 0.31 0.20 0.29 0.71 0.93 1.07 1.14 0.59
nan nan nan nan nan nan 0.00 0.00 0.03 0.02 0.01 0.00 0.01 0.03 0.01 0.01 0.01 0.00 0.00 0.00 0.00 0.06 0.13 0.00 0.00 0.00 0.00 0.00 nan 0.00 0.00 0.36 0.03 0.11 0.04 0.02 0.05 0.10 0.16 0.78 0.76 0.70 0.67 0.36
nan nan nan nan nan nan 0.00 0.00 0.03 0.02 0.00 0.00 0.00 0.03 0.03 0.03 0.00 0.03 0.03 0.03 0.00 0.00 0.14 0.16 0.35 0.11 0.00 0.02 0.00 0.00 0.01 0.30 0.04 0.07 0.00 0.00 0.02 0.01 0.02 0.08 0.39 0.38 0.25 0.29
nan nan nan nan nan nan 0.00 0.00 0.00 0.07 nan 0.02 0.13 0.09 0.00 0.00 0.00 0.00 0.01 0.01 0.04 0.01 0.02 0.01 0.00 0.00 0.02 0.03 0.01 0.00 0.08 0.14 0.09 0.13 0.00 0.00 0.14 0.08 0.04 0.16 0.16 0.21 0.28 0.38
nan nan nan nan nan nan 0.00 0.00 0.03 0.41 0.18 0.06 0.04 0.00 0.00 0.00 0.00 0.08 0.00 0.00 0.02 0.02 0.00 0.00 0.00 0.00 0.00 0.01 0.01 0.00 0.04 0.12 0.20 0.34 0.04 0.45 0.06 0.00 0.03 0.04 0.06 0.06 0.08 0.10
nan nan nan nan nan nan 0.00 0.00 0.08 0.46 0.83 0.03 0.01 0.00 0.00 0.00 0.00 0.00 0.00 0.00 0.00 0.00 0.01 0.23 0.20 0.03 0.02 0.02 0.00 0.01 0.03 0.34 1.02 0.83 0.17 0.04 0.01 0.02 0.07 0.11 0.08 0.01 0.03 0.01
nan nan nan nan nan nan 0.00 0.00 0.00 0.22 1.50 0.07 0.02 0.04 0.00 0.16 0.07 0.00 0.03 0.00 0.00 0.00 0.10 0.29 0.38 0.23 0.11 0.05 0.00 0.00 0.01 0.20 0.34 0.42 0.51 0.22 0.13 0.00 0.00 0.01 0.11 0.00 0.02 0.06
nan nan nan nan nan nan 0.00 0.00 0.00 0.29 1.74 0.07 0.01 0.20 0.35 0.17 0.31 0.68 0.04 0.01 0.02 0.00 0.23 0.42 0.49 0.23 0.04 0.29 0.10 0.08 0.04 0.22 0.63 0.22 0.51 0.17 0.02 0.00 0.00 0.16 0.22 0.02 0.02 0.05
nan nan nan nan nan nan 0.00 0.00 0.00 0.25 1.32 0.19 0.02 0.04 0.68 0.36 0.37 0.83 0.02 0.29 0.38 0.35 0.60 0.54 0.35 0.32 0.25 0.19 0.13 0.39 0.47 0.86 0.35 0.30 0.32 0.81 0.02 0.08 0.38 0.23 0.07 0.01 0.04 0.04
nan nan nan nan nan nan nan 0.01 0.00 0.00 0.57 0.19 0.00 0.00 0.00 0.06 0.15 1.12 0.33 0.15 0.11 0.39 0.57 0.75 0.54 0.35 0.25 0.31 0.26 0.27 0.90 0.60 0.78 0.50 0.12 0.09 0.07 0.51 0.35 0.43 0.52 0.25 0.24 0.05
nan nan nan nan nan nan nan 0.00 0.00 0.01 0.32 0.17 0.10 0.03 0.00 0.00 0.00 0.00 1.87 0.17 0.45 0.46 0.27 0.97 1.01 0.85 0.13 0.27 0.43 0.26 0.13 0.19 0.59 0.59 0.38 0.35 0.39 0.56 0.27 0.43 0.62 0.50 0.33 0.25
nan nan nan nan nan nan nan 0.00 0.00 0.00 0.08 0.79 0.22 0.00 0.00 0.00 0.00 0.00 0.01 0.25 0.18 0.61 0.66 1.56 0.91 0.54 0.19 0.37 0.50 0.31 0.33 0.28 0.35 0.39 0.47 0.37 0.17 0.39 0.62 0.67 0.44 0.65 0.61 0.64
nan nan nan nan nan nan nan 0.00 0.00 0.00 0.24 0.37 0.15 0.00 0.00 0.00 0.00 0.00 0.00 0.06 0.76 1.27 2.07 2.03 1.62 0.50 0.75 0.77 0.42 0.56 1.14 1.52 1.39 0.89 0.84 1.29 1.21 0.97 0.83 0.81 1.23 1.52 1.00 0.57
nan nan nan nan nan nan 0.00 0.02 0.00 0.00 0.01 0.82 0.42 0.00 0.00 0.00 0.00 0.01 0.05 0.22 0.75 1.07 1.39 1.39 1.27 0.64 0.66 1.28 0.74 0.51 0.89 1.09 1.78 2.34 1.57 1.91 1.66 1.27 1.25 1.42 1.62 1.37 1.41 1.48
nan nan nan nan nan 0.00 0.00 0.01 0.01 nan 0.01 0.56 1.11 0.11 0.00 0.00 0.03 0.09 0.19 0.20 0.52 0.83 1.10 1.02 0.58 0.56 0.51 0.89 1.17 1.20 1.37 1.75 1.74 1.43 1.06 1.22 1.65 2.89 2.01 1.85 2.15 1.42 1.36 1.35
nan nan nan nan nan nan 0.01 0.02 nan nan 0.10 0.20 2.35 0.54 0.02 0.02 0.44 0.60 0.17 0.72 0.43 0.48 0.67 0.63 0.55 0.34 0.56 1.41 1.05 1.17 1.17 0.81 1.04 1.54 1.44 1.99 1.02 1.08 1.41 1.10 0.95 0.65 0.84 0.74
nan nan nan 0.00 0.00 0.01 0.01 nan nan 0.16 0.05 1.52 1.00 0.89 1.01 0.01 0.14 0.47 0.51 0.39 1.17 0.60 0.75 0.53 0.33 0.71 1.67 1.72 1.34 1.10 1.24 1.70 1.88 0.93 0.88 0.58 0.84 0.62 0.54 0.37 0.30 0.31 0.49 0.24
nan 0.00 0.00 0.21 0.00 nan nan 0.08 0.18 0.40 0.79 0.63 0.58 0.09 0.62 0.17 0.12 0.26 0.46 0.54 0.78 2.51 0.69 0.17 0.92 1.40 0.51 1.09 1.24 1.11 0.99 0.82 0.54 0.33 0.41 0.22 0.20 0.11 0.07 0.05 0.02 0.06 0.04 0.04
0.00 0.16 0.15 0.04 nan 0.01 0.22 0.83 1.21 0.80 1.81 0.60 0.48 0.22 0.41 0.06 1.24 0.72 0.53 1.84 1.02 1.78 0.54 0.59 0.77 0.56 1.00 0.86 0.80 0.60 0.48 0.37 0.38 0.22 0.12 0.05 0.07 0.04 0.02 0.01 0.01 0.02 0.03 0.03
0.02 0.11 0.07 0.06 0.35 0.69 1.03 1.19 1.09 0.83 1.13 0.47 0.37 0.29 0.29 0.56 0.56 1.34 1.49 1.27 1.55 1.76 0.23 1.20 0.90 0.83 0.71 0.74 0.55 0.36 0.23 0.23 0.12 0.02 0.02 0.01 0.00 0.00 0.01 0.02 0.02 0.03 0.03 0.05
0.13 0.29 0.52 0.54 1.06 5.12 1.89 1.34 1.65 1.91 0.95 0.77 0.54 1.06 0.15 0.36 0.74 1.45 1.40 3.07 2.42 0.54 2.78 0.97 1.00 0.91 0.60 0.49 0.28 0.08 0.05 0.04 0.02 0.01 0.00 0.00 0.01 0.01 0.04 0.06 0.02 0.07 0.07 0.06
0.87 2.50 6.60 1.65 1.78 0.57 0.78 0.56 0.75 0.35 0.59 0.38 0.47 0.69 0.70 0.43 1.00 0.73 2.38 0.96 0.68 2.16 1.64 1.24 1.20 0.89 0.36 0.11 0.13 0.17 0.10 0.02 0.04 0.02 0.05 0.04 0.06 0.05 0.04 0.08 0.12 0.11 0.09 0.08
2.26 1.65 3.99 1.67 0.28 0.59 0.63 1.02 0.84 0.47 0.40 0.64 0.53 0.46 0.29 0.88 1.30 0.44 1.22 1.74 1.81 0.77 1.36 1.15 1.03 0.54 0.58 0.21 0.13 0.21 0.27 0.12 0.06 0.09 0.08 0.08 0.09 0.10 0.12 0.10 0.10 0.10 0.07 0.05
3.02 2.29 1.70 0.08 0.92 1.24 0.94 1.17 0.84 0.23 0.29 0.35 0.61 1.30 1.64 1.13 0.91 1.55 1.39 1.73 1.36 1.37 1.34 0.61 0.30 0.25 0.31 0.21 0.18 0.10 0.21 0.49 0.49 0.24 0.13 0.13 0.16 0.21 0.17 0.09 0.08 0.07 0.07 0.07
4.51 3.30 0.04 0.33 0.68 0.63 0.21 0.03 0.04 0.02 0.60 1.38 1.68 2.33 1.31 1.46 1.74 1.31 0.84 1.93 1.16 0.86 0.50 0.24 0.27 0.39 0.36 0.23 0.12 0.10 0.11 0.10 0.11 0.11 0.12 0.16 0.12 0.14 0.11 0.14 0.08 0.08 0.06 0.05
SL_Ratio
nan nan nan nan nan nan nan nan 2.5 nan nan 2.5 nan 2.7 5.0 nan nan nan nan nan nan nan nan 5.0 5.0 6.1 5.0 nan nan 6.9 5.5 9.5 9.3 11.6 9.2 8.8 10.1 12.0 12.2 12.1 12.7 14.2 13.5 12.5
nan nan nan nan nan nan nan nan nan nan nan 2.8 3.0 nan nan nan nan nan nan nan nan nan 5.0 8.4 nan nan nan nan nan 8.1 5.8 7.9 11.3 12.5 9.9 7.3 11.7 10.9 11.9 12.1 12.0 15.6 11.5 12.3
nan nan nan nan nan nan nan nan 2.6 nan nan nan 4.0 4.4 nan 0.0 nan nan nan 4.2 nan 4.3 nan nan 7.8 5.0 nan nan nan nan nan 7.3 11.9 10.0 14.7 10.6 13.3 12.6 13.6 12.4 12.6 15.1 13.3 16.2
nan nan nan nan nan nan nan nan 3.6 4.2 4.5 nan 3.9 4.6 4.3 4.1 5.0 5.0 nan nan 5.0 7.5 10.9 7.0 nan 5.0 nan nan nan nan 5.0 11.8 9.2 13.1 10.3 9.4 14.2 16.0 16.6 12.8 15.2 14.2 17.2 17.6
nan nan nan nan nan nan nan nan 3.6 3.8 nan nan 5.0 5.3 4.9 4.5 3.3 5.0 4.6 6.3 7.5 6.0 11.4 9.3 11.4 9.8 10.0 7.7 5.0 5.0 6.1 10.2 9.5 12.4 5.0 nan 11.5 13.2 13.5 16.3 16.6 17.1 17.7 18.4
nan nan nan nan nan nan nan 2.5 3.0 3.5 nan 4.5 5.4 5.5 5.7 5.0 5.0 nan 4.5 5.3 6.7 7.7 5.6 5.0 5.0 nan 6.3 7.0 7.4 7.1 8.6 10.4 10.8 14.6 10.0 5.0 10.7 17.1 14.7 17.9 17.1 17.0 17.4 17.6
nan nan nan nan nan nan nan nan 3.1 4.1 4.9 4.9 5.1 5.0 nan nan nan 7.0 6.7 5.0 5.2 4.8 nan nan nan nan 6.7 5.6 6.0 6.7 9.3 11.3 11.5 11.1 14.9 16.1 12.1 8.8 9.2 14.5 14.1 15.3 16.0 15.6
nan nan nan nan nan nan nan nan 2.7 3.8 6.9 4.5 4.8 6.0 nan 10.0 5.0 nan nan nan 5.0 nan 5.0 8.3 9.4 8.3 6.5 9.3 3.3 5.7 7.4 10.4 11.7 13.0 15.1 14.3 12.2 11.3 13.6 15.0 14.3 10.0 14.7 11.7
nan nan nan nan nan nan nan nan nan 2.8 5.8 4.7 5.2 5.5 5.0 6.4 6.3 5.0 7.6 5.0 nan nan 5.9 7.3 11.1 10.6 12.4 10.8 7.5 5.8 8.2 8.6 10.1 9.7 14.2 12.3 14.1 7.5 nan 10.0 14.9 7.5 9.2 8.8
nan nan nan nan nan nan nan nan nan 3.0 5.9 4.1 4.6 5.9 6.4 6.1 8.3 7.8 6.7 7.1 3.3 nan 7.2 9.2 9.3 9.5 7.0 12.6 12.7 12.8 10.9 10.1 10.6 10.7 13.1 12.1 11.0 10.0 5.0 14.2 11.9 8.8 8.8 8.6
nan nan nan nan nan nan nan nan nan 2.8 4.1 4.1 3.4 4.5 6.5 5.4 5.7 8.3 6.2 8.4 6.8 6.0 8.1 9.0 8.4 9.8 9.1 11.1 12.3 12.9 13.8 12.6 12.7 12.9 12.9 9.3 8.0 9.4 15.4 11.5 8.6 8.1 8.2 8.1
nan nan nan nan nan nan nan 2.7 nan nan 3.2 4.8 nan 5.0 5.0 4.4 4.3 5.6 5.8 6.6 6.9 7.0 8.7 7.9 9.1 9.8 8.8 10.4 13.7 11.5 11.8 12.7 14.0 11.4 13.9 11.5 10.3 11.2 9.9 10.7 11.3 11.4 11.2 8.5
nan nan nan nan nan nan nan nan nan 4.1 3.8 3.9 4.1 3.8 nan nan nan 5.0 6.6 3.4 4.8 5.6 6.4 7.9 7.7 9.2 8.3 12.8 13.5 10.7 8.0 8.1 10.2 11.4 7.4 9.2 9.7 8.9 9.6 9.4 10.2 10.1 10.2 10.6
nan nan nan nan nan nan nan nan nan 2.5 3.9 7.1 5.5 nan 5.0 nan nan nan 4.2 4.6 4.3 5.2 5.4 7.1 7.5 8.9 8.6 10.2 9.2 10.8 10.6 11.2 10.8 10.0 7.9 7.8 7.3 9.1 9.6 9.3 8.8 8.6 7.8 9.1
nan nan nan nan nan nan nan nan nan nan 5.7 6.1 5.3 3.8 nan nan nan nan nan 4.4 5.3 6.1 6.2 6.4 7.4 7.3 7.4 6.5 7.8 10.4 10.3 10.8 11.9 12.2 10.5 10.2 8.0 9.2 9.0 9.6 8.7 7.7 9.2 9.1
nan nan nan nan nan nan nan 5.5 nan nan 4.8 6.1 6.5 nan nan nan nan 3.9 5.3 5.4 6.2 6.1 6.3 6.9 5.7 5.1 6.8 7.6 11.2 10.3 10.0 9.0 8.7 9.5 8.2 8.4 7.8 7.5 8.2 9.0 8.4 8.4 8.5 8.2
nan nan nan nan nan nan nan 4.8 5.5 nan 4.3 4.9 4.9 4.7 nan 3.3 4.3 4.4 5.9 6.1 6.0 6.3 5.8 7.0 6.9 7.9 7.6 8.0 13.0 10.0 9.0 8.3 8.3 8.1 8.8 8.7 8.6 8.2 8.1 8.4 8.0 8.5 8.0 8.0
nan nan nan nan nan nan 2.5 3.1 nan nan 6.2 4.7 5.3 5.3 6.8 4.3 6.1 7.1 5.5 6.4 6.3 6.4 6.5 7.1 8.0 7.6 8.7 11.6 10.4 9.5 8.7 8.6 8.9 8.6 8.6 8.6 8.2 8.4 8.3 8.1 8.3 8.9 8.9 8.4
nan nan nan nan nan 4.4 5.5 nan nan 5.0 4.8 5.4 5.8 5.9 4.4 5.4 6.7 7.5 7.7 6.1 7.5 6.3 7.5 8.8 9.7 7.5 11.8 10.7 10.4 9.9 9.3 9.4 8.7 8.4 8.6 8.9 9.4 8.9 8.6 8.6 8.7 10.1 9.1 8.9
nan nan 3.6 3.0 5.7 nan nan 6.5 3.0 2.9 4.6 4.6 6.6 6.7 7.7 8.8 8.0 7.1 7.3 6.8 6.7 5.7 9.1 7.3 8.3 10.8 9.9 9.8 9.3 9.2 9.0 8.9 8.9 10.1 10.3 9.1 9.3 9.1 9.1 8.7 8.8 10.3 10.1 9.9
nan 3.8 3.2 5.1 nan 6.5 3.8 5.7 5.7 5.6 6.5 6.2 6.6 6.5 9.3 6.1 7.3 7.8 7.3 5.5 5.8 6.3 7.9 8.1 7.4 11.6 11.3 9.2 9.3 8.5 8.6 8.6 8.5 8.4 8.2 7.9 9.1 9.9 10.0 10.0 9.1 9.8 9.8 10.4
3.6 4.0 3.8 5.4 4.0 4.4 5.5 5.1 5.1 6.0 6.8 6.2 7.0 6.4 6.0 6.6 6.8 7.6 6.5 6.5 5.7 7.4 7.6 6.5 9.1 11.4 9.7 9.3 8.6 8.1 8.4 8.8 8.9 8.2 7.5 8.5 9.0 7.5 10.0 10.4 10.6 10.0 10.0 10.1
4.6 5.0 5.2 5.4 4.9 6.7 5.8 6.9 4.7 5.2 6.4 5.3 6.1 5.3 7.9 7.5 6.6 6.7 6.9 6.7 6.9 7.0 6.3 9.5 10.4 9.9 9.3 8.5 8.2 7.6 6.4 7.5 7.0 6.7 7.0 9.3 9.3 9.1 10.1 10.4 9.8 10.8 11.7 11.1
5.6 4.3 5.8 5.4 5.6 5.9 5.6 6.6 5.8 4.8 5.5 6.6 7.4 5.6 7.3 7.3 6.8 7.3 6.6 8.2 8.5 7.9 8.1 10.5 10.3 9.7 8.5 7.7 7.7 8.4 8.2 8.4 8.6 8.1 8.5 8.9 9.9 9.9 9.8 10.2 11.3 12.2 12.9 12.3
4.8 5.2 6.8 5.2 4.0 3.7 4.0 3.7 4.3 4.3 6.6 7.4 7.0 5.9 8.7 4.7 6.3 8.8 7.0 7.9 7.8 9.0 9.3 9.4 7.9 6.1 5.9 7.6 7.7 6.8 4.6 5.2 6.9 6.7 7.8 8.2 9.5 10.1 10.8 11.8 12.5 12.6 12.5 12.5
3.7 4.3 4.4 4.6 4.2 4.3 4.2 3.2 3.5 4.4 7.0 6.4 6.0 5.9 6.8 6.3 6.6 7.4 7.9 8.1 8.9 8.4 7.6 7.5 6.6 8.1 6.8 8.3 8.5 8.1 5.1 4.2 4.1 5.4 8.3 9.1 10.0 10.1 11.0 11.3 11.2 11.1 11.3 10.9
3.6 4.3 4.3 4.0 4.4 4.2 4.9 6.7 6.5 8.5 5.3 5.5 6.0 7.6 7.3 6.5 8.1 8.5 6.8 8.0 8.4 6.2 5.8 5.9 8.7 8.9 8.8 8.6 8.6 8.6 8.6 8.3 8.8 9.2 10.3 11.3 12.1 12.6 12.4 10.5 12.0 9.2 9.5 10.9